Wind_Speed
95 95 97 95 97 99 98 103 104 105 106 103 102 98 100 96 93 97 101 97 90 87 85 72 70 69 67 63 62 49 50 49 43 44 39 35 34 33 31 35 33 33 34 34 33 34 36
95 98 101 102 104 105 106 106 106 112 110 108 106 105 94 104 103 108 105 99 93 91 86 78 72 67 63 62 58 45 47 45 46 45 38 34 29 33 37 38 37 35 35 37 33 31 33
102 105 108 107 108 114 112 111 113 113 117 119 118 112 112 109 107 108 102 91 90 86 76 71 73 66 58 64 63 57 50 42 45 44 40 31 29 33 37 40 35 36 43 33 33 28 31
103 101 105 109 108 115 117 118 116 120 116 114 120 109 108 107 114 92 83 80 77 71 64 62 60 55 53 67 58 55 50 47 47 42 41 30 29 35 37 42 43 41 36 31 32 25 30
100 100 104 109 108 111 116 116 116 114 114 109 110 108 108 104 83 72 69 64 62 59 59 61 59 54 58 63 59 54 50 52 44 43 42 30 33 34 36 44 43 37 33 33 32 25 29
106 109 111 112 117 119 116 114 112 109 108 104 105 94 83 72 66 61 60 55 56 56 58 62 54 56 62 65 58 59 50 50 50 48 45 34 36 36 38 37 35 31 30 25 22 22 24
115 120 119 118 116 115 110 110 108 99 95 92 76 70 65 59 57 57 58 58 56 57 60 62 55 56 59 65 62 57 50 47 49 48 46 39 33 42 41 35 32 31 29 28 23 24 23
122 122 126 122 117 111 108 106 103 99 93 74 70 62 58 56 54 55 56 52 56 58 56 52 45 52 59 65 58 55 52 50 48 48 50 39 34 52 43 38 34 34 29 25 22 22 22
127 129 124 119 112 110 110 102 99 92 77 68 61 58 55 56 54 53 55 55 56 52 48 46 48 52 65 62 60 54 50 50 49 47 45 46 46 50 45 40 40 40 34 29 22 21 24
121 118 115 113 110 104 99 93 87 79 70 62 59 57 56 57 56 60 58 59 57 50 47 48 48 50 54 53 49 60 55 51 51 52 54 42 46 52 49 47 44 43 39 28 25 25 27
113 110 109 107 101 95 87 81 77 72 68 62 60 57 58 59 60 63 62 66 60 55 53 54 48 55 56 53 50 52 57 56 55 56 54 45 53 49 45 50 46 45 43 34 31 28 27
106 104 101 96 89 85 81 77 75 71 67 64 60 58 59 62 62 63 68 65 63 47 56 56 46 51 60 60 58 57 54 55 56 57 52 51 55 50 45 52 48 49 46 40 34 30 26
96 95 92 89 86 82 79 77 77 74 70 67 64 62 61 66 66 69 73 69 69 62 55 59 51 59 58 62 61 57 58 56 54 54 52 54 55 52 51 52 51 51 51 47 38 35 32
88 88 87 86 85 83 82 80 79 78 76 71 70 65 63 69 70 73 75 75 72 72 71 63 67 67 66 62 63 61 62 55 52 52 54 53 54 54 55 57 57 57 53 47 43 40 35
86 87 87 87 85 83 81 79 78 79 78 78 75 70 66 71 72 75 75 79 73 77 76 75 74 73 70 67 66 65 63 60 60 59 57 60 60 57 54 58 58 55 54 53 47 39 34
85 84 83 81 79 77 76 75 74 75 77 80 78 75 72 70 72 78 76 74 82 77 81 80 79 80 77 75 71 72 73 68 67 62 61 57 57 61 64 64 63 60 59 56 49 41 39
80 80 80 78 76 75 76 77 77 76 77 78 79 77 75 74 72 73 74 76 80 87 87 87 83 82 83 84 80 75 74 76 71 74 71 68 67 67 67 65 65 63 63 60 54 47 38
77 75 74 74 74 74 73 74 74 75 77 77 76 73 75 78 72 67 71 79 81 86 90 91 86 85 86 82 79 79 79 75 75 74 75 74 68 68 71 71 71 70 65 62 56 50 45
71 69 70 70 71 71 71 72 74 74 73 75 74 71 72 80 66 64 68 74 82 85 91 90 91 91 90 90 90 88 87 81 80 79 79 78 76 75 74 73 74 73 72 70 64 58 50
66 65 66 65 64 64 64 65 67 69 70 71 68 70 68 67 62 68 71 73 76 85 93 92 95 97 97 95 95 92 94 90 90 87 84 84 85 82 79 75 76 71 67 64 64 60 54
59 58 57 57 57 56 57 57 59 61 62 65 62 61 61 56 62 71 73 73 75 81 84 88 94 98 98 98 98 97 98 93 91 88 86 88 84 84 88 85 83 80 75 75 68 64 64
51 50 49 47 48 50 51 51 53 55 57 56 49 50 53 59 65 65 68 68 72 77 81 82 83 92 97 96 98 101 102 99 92 92 91 92 91 89 88 88 86 85 78 82 76 69 61
44 44 45 45 45 46 47 48 49 51 50 45 39 46 49 58 64 63 61 67 71 74 76 79 80 86 88 90 89 93 96 96 94 94 91 90 88 87 82 85 85 77 82 80 72 65 59
43 43 44 44 44 43 43 44 45 45 41 39 45 47 45 52 58 61 65 68 69 70 74 75 77 81 83 79 78 80 84 83 82 86 87 86 90 92 88 89 89 79 83 82 78 68 63
43 42 42 41 40 41 40 40 41 40 40 41 41 41 45 51 55 56 60 64 68 69 70 72 75 79 74 72 72 71 73 73 73 76 78 79 80 80 79 82 77 75 80 83 83 72 70
39 39 38 38 38 40 39 39 38 38 40 40 42 42 45 51 52 56 58 61 62 65 64 69 74 69 69 67 68 68 70 70 71 72 73 72 72 74 73 74 73 73 81 82 79 66 77
38 37 36 37 38 38 39 39 39 39 40 40 41 42 44 45 49 53 55 57 58 60 62 67 67 63 62 61 63 66 67 67 68 70 71 71 70 70 70 73 66 68 76 79 74 68 76
36 36 37 37 37 38 38 39 39 40 40 41 43 43 45 47 50 52 52 53 53 55 60 65 59 55 57 58 59 62 65 67 66 69 70 70 70 69 70 69 65 70 70 73 72 72 75
35 36 36 36 38 38 39 38 38 40 40 38 41 42 45 48 47 49 50 51 53 56 58 56 55 54 55 55 55 59 60 62 63 63 64 65 68 70 68 69 69 68 70 71 72 69 71
Wind_Direction
270 271 272 271 272 271 269 268 264 265 267 268 271 273 272 274 276 278 276 271 267 267 268 267 264 263 258 256 253 258 263 263 266 270 271 276 289 284 278 269 273 279 285 297 307 315 321
268 269 271 271 270 270 271 270 268 265 267 268 270 272 278 276 275 277 272 271 265 266 264 263 259 257 259 247 248 252 260 258 263 268 263 273 285 279 273 267 273 277 285 297 304 317 327
269 269 270 270 271 273 272 270 271 270 268 270 271 273 277 274 277 279 270 264 262 262 260 258 255 252 253 244 247 248 248 254 258 261 255 265 277 277 272 268 269 276 288 289 299 313 321
267 270 272 270 271 271 272 274 273 274 274 272 275 274 278 277 276 273 267 261 256 255 250 246 250 248 240 243 243 244 245 253 249 255 254 261 264 265 271 267 270 277 278 285 292 307 314
270 272 275 274 273 275 274 274 276 277 278 276 279 278 274 274 272 261 258 250 247 239 239 241 248 243 229 236 239 242 243 246 247 250 248 255 260 263 269 267 266 277 285 287 289 298 312
281 283 278 280 279 275 278 280 280 279 279 279 281 278 270 265 261 253 247 242 236 240 241 245 245 234 228 234 237 239 240 243 245 246 249 247 253 263 263 265 273 280 283 287 288 298 312
279 281 281 283 282 279 281 278 278 280 282 282 278 270 267 259 252 245 239 236 239 237 241 243 239 236 233 231 235 235 236 241 243 244 241 243 255 258 258 267 272 275 277 277 292 298 305
279 279 281 282 281 280 280 282 279 280 280 275 273 266 263 255 245 240 234 232 232 238 241 239 236 228 224 226 233 237 238 237 239 237 242 245 252 251 257 263 266 271 273 276 290 292 301
279 279 282 280 279 278 282 280 280 280 275 272 267 261 257 249 242 237 230 225 229 236 225 231 232 225 230 231 232 237 230 231 235 239 240 245 249 255 256 259 260 266 268 271 290 291 294
279 280 279 279 277 279 279 278 275 274 272 268 262 258 253 247 239 232 225 223 223 227 217 222 222 223 232 232 231 235 228 232 236 236 237 241 249 254 252 256 259 266 268 273 277 285 291
277 279 277 277 276 277 275 273 270 269 268 265 260 256 250 245 237 234 225 226 226 223 215 219 222 221 226 226 223 230 232 232 236 235 238 234 246 252 255 252 263 260 263 275 278 276 284
278 275 276 275 273 272 270 268 267 265 263 261 259 253 248 242 236 232 227 228 220 227 226 222 217 235 227 227 223 229 235 236 237 238 236 233 243 248 252 252 257 258 264 270 280 284 293
275 274 272 272 271 268 267 265 264 263 259 258 256 251 246 240 234 229 228 230 223 221 222 221 228 225 233 231 226 234 237 239 244 242 239 237 241 244 246 251 256 258 261 268 274 283 277
273 272 271 270 269 268 266 264 262 260 258 254 253 250 246 239 235 230 231 228 224 223 221 219 223 225 231 236 234 236 239 236 237 243 246 246 250 245 248 247 249 255 261 268 273 282 286
270 270 271 270 270 269 266 264 261 258 256 253 252 249 244 240 234 232 231 233 225 224 226 228 222 226 233 234 234 234 241 238 239 245 245 242 240 243 247 248 251 255 261 263 272 281 279
271 270 270 269 268 267 266 263 260 257 254 251 249 246 244 242 235 232 232 232 230 227 227 232 227 227 231 233 233 233 233 234 234 238 244 246 244 249 252 253 255 256 259 263 267 273 271
269 269 269 269 268 265 263 261 258 255 252 249 248 246 241 243 238 234 232 230 231 231 229 228 231 229 232 236 237 238 239 237 236 236 238 240 243 247 250 251 252 251 257 263 265 265 268
269 269 269 267 264 262 260 257 256 253 250 248 246 245 239 241 240 235 230 231 231 233 232 230 231 233 232 232 234 240 242 241 242 241 241 244 246 248 251 252 253 255 256 260 264 262 265
268 267 265 264 263 261 258 255 253 252 250 247 243 241 237 241 238 238 234 232 232 233 234 234 234 235 234 234 234 234 237 238 239 240 242 243 245 249 250 253 255 255 258 263 265 264 267
266 266 265 262 260 258 256 254 252 251 249 247 244 237 236 241 237 234 234 235 235 235 234 235 235 237 238 237 238 237 240 239 241 244 246 246 248 249 251 258 258 259 261 263 263 264 265
264 263 260 257 258 256 254 251 250 249 247 244 242 239 234 232 233 233 232 231 234 238 238 237 237 238 239 239 240 240 241 240 242 244 244 246 249 253 253 256 261 263 264 268 266 260 264
261 259 259 257 254 253 254 251 249 246 245 242 240 239 232 225 229 230 232 233 233 234 236 238 238 240 241 242 242 244 245 246 247 247 245 246 250 252 255 258 260 261 262 263 264 263 262
262 261 259 257 254 252 250 248 246 244 244 240 237 236 230 227 229 230 231 231 231 234 236 237 237 239 241 240 242 244 246 247 247 248 249 249 250 249 249 252 253 254 259 259 258 258 255
260 258 256 254 252 250 247 245 243 241 240 235 231 229 225 227 228 229 230 231 233 233 236 237 238 240 242 243 244 244 246 246 248 249 250 250 249 248 249 249 250 250 251 253 253 252 249
259 257 253 251 250 248 245 242 239 236 233 231 230 226 222 225 225 227 230 230 233 234 235 238 241 242 244 244 244 245 246 246 246 247 248 249 249 250 247 247 247 246 246 246 248 251 247
262 258 254 251 249 246 242 239 236 234 231 229 227 226 225 224 225 226 228 229 231 233 235 237 239 239 242 240 241 243 244 245 244 245 245 245 245 245 247 247 245 244 245 247 247 244 250
260 257 254 248 245 243 241 236 233 230 227 227 227 225 224 225 226 227 230 230 231 232 233 236 237 236 237 240 240 240 241 242 242 242 243 242 244 245 244 245 244 241 244 247 245 240 245
259 256 251 248 242 239 237 235 232 229 224 221 222 222 224 224 225 226 229 230 231 233 233 235 237 237 236 236 235 236 238 238 239 241 242 242 243 242 241 241 240 242 240 243 241 237 239
255 252 249 242 241 237 233 233 231 230 225 217 217 218 220 221 223 223 224 226 227 228 231 236 235 235 235 238 238 238 239 241 240 240 241 241 239 240 241 242 239 236 240 239 241 240 237
Height
10625 10622 10621 10620 10620 10618 10618 10617 10616 10615 10615 10617 10616 10619 10621 10624 10623 10624 10626 10628 10632 10636 10642 10647 10651 10654 10661 10662 10658 10671 10670 10670 10672 10672 10673 10674 10674 10673 10675 10675 10675 10675 10676 10675 10673 10670 10666
10604 10601 10600 10597 10595 10593 10593 10592 10593 10592 10593 10594 10597 10599 10600 10602 10602 10603 10602 10602 10607 10614 10622 10630 10636 10639 10647 10647 10648 10659 10655 10660 10663 10663 10665 10666 10667 10665 10667 10668 10668 10669 10668 10669 10668 10664 10660
10582 10579 10577 10574 10570 10568 10569 10569 10570 10569 10570 10571 10572 10574 10577 10578 10577 10575 10576 10578 10583 10593 10602 10611 10618 10624 10635 10626 10635 10642 10645 10650 10653 10653 10655 10658 10658 10658 10658 10661 10661 10662 10662 10662 10661 10660 10656
10557 10555 10553 10551 10549 10545 10544 10541 10544 10543 10545 10549 10546 10547 10549 10547 10548 10547 10550 10554 10561 10573 10584 10591 10602 10611 10621 10611 10623 10626 10638 10637 10641 10644 10647 10652 10650 10649 10651 10653 10654 10655 10654 10656 10655 10655 10654
10531 10529 10527 10525 10523 10521 10517 10517 10520 10518 10519 10520 10521 10521 10522 10522 10520 10524 10529 10536 10544 10556 10566 10576 10586 10596 10603 10599 10608 10615 10623 10624 10631 10635 10637 10643 10642 10641 10643 10644 10646 10648 10645 10648 10649 10649 10648
10508 10505 10502 10499 10496 10495 10493 10492 10491 10492 10494 10495 10494 10491 10492 10496 10500 10506 10513 10520 10530 10542 10552 10562 10572 10579 10587 10586 10594 10602 10609 10613 10620 10624 10630 10632 10633 10634 10633 10635 10639 10640 10638 10640 10640 10643 10641
10485 10481 10477 10475 10472 10471 10466 10464 10466 10468 10469 10469 10469 10471 10474 10478 10483 10491 10499 10507 10518 10530 10539 10547 10558 10564 10569 10575 10581 10590 10597 10602 10608 10615 10618 10619 10628 10623 10623 10630 10631 10630 10631 10631 10633 10633 10633
10455 10452 10451 10448 10448 10446 10445 10441 10442 10446 10450 10448 10451 10454 10457 10461 10469 10477 10485 10494 10506 10519 10527 10533 10542 10552 10556 10559 10571 10577 10586 10590 10596 10601 10605 10616 10622 10604 10616 10622 10624 10622 10624 10623 10625 10627 10627
10428 10425 10423 10422 10422 10423 10422 10420 10420 10423 10428 10430 10433 10438 10443 10446 10454 10464 10472 10483 10494 10506 10516 10522 10528 10540 10540 10549 10559 10564 10572 10579 10584 10591 10597 10605 10605 10601 10607 10613 10615 10615 10616 10617 10619 10620 10621
10400 10399 10399 10397 10398 10399 10399 10398 10399 10402 10408 10413 10417 10423 10429 10432 10441 10449 10462 10471 10481 10494 10507 10507 10516 10525 10530 10543 10554 10546 10560 10565 10573 10579 10581 10594 10594 10593 10599 10602 10605 10607 10608 10611 10612 10613 10613
10373 10373 10373 10374 10374 10374 10377 10378 10380 10383 10389 10395 10400 10407 10414 10418 10425 10436 10450 10458 10470 10482 10497 10493 10505 10512 10518 10527 10537 10536 10543 10555 10564 10565 10570 10583 10577 10583 10592 10589 10597 10596 10600 10604 10605 10606 10607
10348 10347 10348 10349 10351 10353 10356 10357 10361 10365 10369 10376 10382 10390 10399 10403 10411 10422 10433 10444 10459 10469 10482 10487 10493 10500 10507 10515 10523 10526 10533 10542 10548 10552 10561 10568 10568 10575 10581 10577 10586 10585 10590 10595 10598 10599 10601
10322 10322 10324 10325 10328 10331 10336 10339 10341 10345 10351 10356 10363 10372 10382 10388 10395 10407 10415 10429 10443 10458 10465 10473 10484 10488 10493 10500 10508 10513 10521 10531 10534 10539 10551 10554 10556 10561 10567 10569 10573 10576 10579 10587 10592 10591 10593
10299 10299 10300 10301 10304 10307 10312 10317 10321 10324 10330 10336 10342 10353 10363 10368 10379 10389 10400 10411 10430 10444 10447 10457 10466 10470 10477 10486 10494 10500 10506 10516 10523 10527 10534 10541 10544 10549 10555 10558 10559 10565 10570 10579 10581 10584 10586
10273 10274 10276 10277 10280 10283 10288 10293 10299 10303 10308 10314 10321 10332 10343 10346 10361 10371 10383 10399 10415 10423 10432 10438 10448 10455 10464 10471 10479 10486 10493 10500 10507 10513 10520 10528 10536 10536 10543 10544 10548 10557 10562 10563 10571 10577 10579
10248 10250 10251 10252 10256 10260 10264 10270 10276 10280 10285 10290 10299 10309 10321 10327 10342 10353 10368 10386 10395 10404 10415 10420 10430 10439 10447 10453 10459 10467 10474 10484 10493 10503 10509 10517 10524 10526 10528 10534 10540 10546 10549 10554 10562 10568 10571
10224 10226 10228 10229 10233 10237 10241 10245 10251 10257 10261 10265 10275 10287 10303 10307 10320 10337 10357 10369 10374 10381 10390 10397 10407 10422 10431 10436 10441 10448 10455 10467 10479 10489 10496 10501 10510 10514 10517 10525 10526 10532 10537 10542 10547 10555 10561
10201 10204 10206 10207 10208 10212 10216 10221 10226 10231 10234 10243 10253 10267 10283 10283 10302 10324 10338 10349 10353 10358 10369 10380 10390 10401 10412 10421 10428 10432 10438 10453 10464 10472 10478 10487 10497 10503 10505 10506 10513 10517 10523 10526 10534 10542 10549
10179 10180 10182 10184 10187 10190 10194 10199 10202 10207 10213 10218 10230 10248 10259 10260 10292 10311 10320 10325 10330 10341 10350 10362 10371 10381 10390 10399 10409 10416 10420 10438 10445 10454 10463 10472 10479 10489 10492 10491 10495 10503 10507 10511 10518 10527 10538
10157 10160 10161 10164 10166 10169 10173 10178 10182 10186 10191 10197 10210 10225 10239 10253 10280 10286 10296 10306 10315 10318 10328 10342 10350 10356 10366 10376 10386 10398 10403 10420 10426 10440 10446 10451 10460 10469 10476 10473 10475 10488 10493 10499 10504 10514 10519
10139 10140 10143 10145 10146 10151 10154 10159 10163 10167 10172 10177 10193 10211 10230 10250 10256 10261 10271 10286 10295 10304 10308 10319 10331 10336 10343 10353 10363 10377 10382 10397 10409 10419 10427 10432 10442 10448 10455 10458 10458 10469 10480 10482 10487 10494 10499
10122 10124 10125 10128 10131 10134 10138 10143 10147 10151 10154 10164 10184 10200 10218 10230 10232 10244 10255 10272 10278 10281 10287 10298 10311 10309 10316 10337 10345 10352 10361 10376 10388 10398 10407 10414 10427 10430 10434 10441 10443 10450 10459 10460 10468 10476 10486
10106 10108 10111 10113 10116 10120 10124 10128 10132 10137 10145 10159 10175 10186 10200 10211 10217 10230 10245 10247 10255 10262 10271 10278 10287 10289 10298 10307 10322 10335 10345 10358 10370 10374 10382 10393 10402 10406 10420 10420 10422 10439 10435 10439 10451 10459 10468
10092 10094 10096 10099 10103 10106 10110 10115 10119 10127 10139 10149 10158 10170 10186 10194 10204 10214 10221 10229 10237 10246 10250 10258 10268 10271 10276 10295 10309 10318 10325 10338 10347 10355 10358 10371 10375 10383 10398 10396 10404 10427 10418 10423 10430 10443 10452
10078 10081 10083 10086 10090 10094 10098 10103 10109 10118 10128 10137 10147 10162 10172 10178 10187 10198 10208 10214 10220 10230 10239 10245 10250 10253 10269 10283 10292 10301 10308 10318 10328 10334 10340 10346 10353 10361 10368 10373 10391 10402 10400 10399 10406 10428 10434
10064 10066 10070 10073 10077 10082 10086 10092 10099 10108 10117 10127 10136 10147 10157 10164 10178 10182 10190 10196 10206 10215 10225 10228 10229 10245 10254 10267 10274 10283 10290 10299 10306 10313 10318 10326 10332 10337 10349 10353 10366 10384 10376 10379 10392 10419 10404
10051 10053 10056 10061 10065 10070 10076 10082 10089 10098 10108 10117 10126 10137 10145 10154 10162 10169 10177 10185 10194 10200 10207 10206 10216 10232 10243 10253 10260 10265 10272 10280 10286 10292 10298 10304 10311 10320 10326 10330 10354 10359 10358 10363 10377 10396 10389
10040 10042 10045 10049 10053 10059 10064 10071 10078 10087 10099 10109 10116 10125 10133 10141 10147 10156 10165 10173 10181 10187 10190 10190 10209 10223 10230 10238 10244 10246 10252 10259 10269 10274 10280 10289 10296 10303 10309 10318 10333 10334 10341 10344 10351 10363 10373
10029 10032 10035 10039 10043 10048 10055 10061 10068 10076 10087 10101 10109 10116 10122 10128 10139 10146 10153 10160 10166 10167 10173 10188 10198 10208 10216 10224 10234 10235 10242 10246 10254 10260 10265 10272 10278 10284 10294 10303 10309 10316 10320 10326 10332 10343 10352